Flag for U.S.A. Weather past 2 weeks in Winston-Salem, North Carolina, U.S.A.

Now
89 °F

Passing clouds.


Feels Like: 90 °F
Forecast: 68 / 90 °F
Wind: 6 mph from North

Location: Smith Reynolds Airport

Current Time: Sep 2, 2015 at 3:17:11 PM

Latest Report: Sep 2, 2015 at 2:54 PM


Visibility: 10 mi

Pressure: 30.01 "Hg

Humidity: 43%

Dew point: 64 °F

Location of Winston-SalemLocation

Historic Weather in Winston-Salem — Graph

°F

Winston-Salem temperature yesterday

Maximum temperature yesterday: 89 °F (at 2:54 PM)
Minimum temperature yesterday: 68 °F (at 3:54 AM)
Average temperature yesterday: 78 °F

Past Weeks' High & Low Weather Summary

 TemperatureHumidityPressure
High90 °F (Sep 2, 1:54 PM)97% (Aug 18, 10:54 PM)30.24 "Hg (Aug 18, 10:54 PM)
Low62 °F (Aug 27, 5:54 AM)36% (Sep 1, 2:54 PM)29.86 "Hg (Aug 24, 4:54 PM)
Average75 °F70%30.04 "Hg
* Reported Aug 18 1:54 PM — Sep 2 1:54 PM, Winston-Salem, Weather by CustomWeather, © 2015

Note: Actual official high and low records may vary slightly from our data, if they occured in-between our weather recording intervals... More about our weather records

Advertising

Winston-Salem weather history for previous 24 hours

 ConditionsComfort  
Time TempWeatherWind HumidityBarometerVisibility
1:54 PM
Wed, Sep 2
90 °FScattered clouds.5 mph43%30.03 "Hg10 mi
12:54 PM88 °FPassing clouds.3 mph45%30.06 "Hg10 mi
11:54 AM89 °FSunny.3 mph43%30.08 "Hg10 mi
10:54 AM86 °FSunny.No wind51%30.09 "Hg10 mi
9:54 AM82 °FSunny.No wind60%30.09 "Hg10 mi
8:54 AM77 °FSunny.5 mph71%30.10 "Hg10 mi
7:54 AM72 °FSunny.3 mph84%30.09 "Hg8 mi
6:54 AM68 °FClear.No wind90%30.08 "Hg9 mi
5:54 AM69 °FClear.No wind87%30.07 "Hg10 mi
4:54 AM69 °FClear.No wind87%30.06 "Hg9 mi
3:54 AM71 °FClear.No wind81%30.06 "Hg10 mi
2:54 AM72 °FClear.No wind81%30.06 "Hg10 mi
1:54 AM73 °FClear.No wind79%30.08 "Hg10 mi
12:54 AM72 °FClear.No wind81%30.09 "Hg10 mi
11:54 PM
Tue, Sep 1
73 °FClear.No wind81%30.09 "Hg10 mi
10:54 PM75 °FClear.No wind76%30.07 "Hg10 mi
9:54 PM78 °FClear.No wind64%30.08 "Hg10 mi
8:54 PM79 °FClear.No wind67%30.07 "Hg10 mi
7:54 PM84 °FSunny.No wind55%30.06 "Hg10 mi
6:54 PM87 °FSunny.3 mph46%30.05 "Hg10 mi
5:54 PM87 °FSunny.No wind43%30.05 "Hg10 mi
4:54 PM89 °FSunny.No wind39%30.05 "Hg10 mi
3:54 PM89 °FSunny.3 mph41%30.06 "Hg10 mi
Weather by CustomWeather, © 2015

See weather overviewHow to use our weather pages